Location: Buch
(49.7331°N, 12.1098°E)
Time: 04:15:40
(UTC+00:00)

ISS - Pass Details

Date: 12 May 2021
Orbit: 417 x 422 km, 51.6° (Epoch: 23 June)

Event Time Altitude Azimuth Distance (km) Brightness Sun altitude
Exits shadow 22:31:23 14° 75° (ENE) 1,292 -1.2 -21.4°
Drops below altitude 10° 22:31:55 10° 74° (ENE) 1,509 -0.9 -21.4°
Sets 22:34:02 0° 72° (ENE) 2,376 0.2 -21.5°
